• In Hungary
  • List of Countries
  • For 7 days
  • Water Temperature
  • Satellite Maps
  • Weather Map
  • News
  • Weather Widgets
  • user-avatar
    Login

    Hourly Weather Gubin Ugol

    Today, 21 August, Tuesday

    Time Temperature Precipitation Wind Pressure Humidity
    00:00 +17°C° 0.1 mm 3 mps 745 mmHg 93%
    01:00 +17°C° 0.1 mm 3 mps 745 mmHg 93%
    02:00 +17°C° 0.1 mm 3 mps 744 mmHg 93%
    03:00 +17°C° 0 mm 4 mps 743 mmHg 92%
    04:00 +17°C° 0 mm 4 mps 743 mmHg 91%
    05:00 +17°C° 0 mm 4 mps 742 mmHg 91%
    06:00 +17°C° 0.2 mm 5 mps 742 mmHg 88%
    07:00 +19°C° 0.2 mm 5 mps 741 mmHg 85%
    08:00 +20°C° 0.2 mm 6 mps 741 mmHg 82%
    09:00 +20°C° 0.6 mm 6 mps 740 mmHg 83%
    10:00 +20°C° 0.6 mm 6 mps 740 mmHg 84%
    11:00 +20°C° 0.6 mm 6 mps 740 mmHg 85%
    12:00 +20°C° 0.4 mm 6 mps 740 mmHg 81%
    13:00 +20°C° 0.4 mm 6 mps 740 mmHg 76%
    14:00 +21°C° 0.4 mm 6 mps 740 mmHg 71%
    15:00 +20°C° 0.1 mm 6 mps 741 mmHg 68%
    16:00 +20°C° 0.1 mm 6 mps 741 mmHg 65%
    17:00 +19°C° 0.1 mm 6 mps 741 mmHg 61%
    18:00 +16°C° 0 mm 5 mps 742 mmHg 66%
    19:00 +15°C° 0 mm 4 mps 742 mmHg 71%
    20:00 +13°C° 0 mm 4 mps 743 mmHg 76%
    21:00 +12°C° 0 mm 4 mps 743 mmHg 78%
    22:00 +12°C° 0 mm 4 mps 743 mmHg 81%
    23:00 +11°C° 0 mm 4 mps 744 mmHg 84%

    Tomorrow, 22 August, Wednesday

    Time Temperature Precipitation Wind Pressure Humidity
    00:00 +11°C° 0 mm 4 mps 744 mmHg 84%
    01:00 +11°C° 0 mm 4 mps 744 mmHg 84%
    02:00 +10°C° 0 mm 4 mps 744 mmHg 84%
    03:00 +10°C° 0 mm 4 mps 745 mmHg 84%
    04:00 +10°C° 0 mm 4 mps 745 mmHg 83%
    05:00 +10°C° 0 mm 4 mps 745 mmHg 83%
    06:00 +10°C° 0 mm 5 mps 746 mmHg 78%
    07:00 +13°C° 0 mm 5 mps 746 mmHg 73%
    08:00 +14°C° 0 mm 5 mps 747 mmHg 68%
    09:00 +15°C° 0 mm 6 mps 747 mmHg 63%
    10:00 +16°C° 0 mm 6 mps 747 mmHg 58%
    11:00 +17°C° 0 mm 6 mps 748 mmHg 52%
    12:00 +19°C° 0 mm 6 mps 748 mmHg 50%
    13:00 +19°C° 0 mm 6 mps 748 mmHg 48%
    14:00 +19°C° 0 mm 6 mps 749 mmHg 45%
    15:00 +19°C° 0 mm 5 mps 749 mmHg 49%
    16:00 +17°C° 0 mm 5 mps 749 mmHg 52%
    17:00 +17°C° 0 mm 4 mps 750 mmHg 56%
    18:00 +16°C° 0 mm 3 mps 750 mmHg 61%
    19:00 +13°C° 0 mm 3 mps 751 mmHg 67%
    20:00 +12°C° 0 mm 2 mps 751 mmHg 73%
    21:00 +12°C° 0 mm 2 mps 752 mmHg 75%
    22:00 +10°C° 0 mm 2 mps 752 mmHg 78%
    23:00 +9°C° 0 mm 2 mps 753 mmHg 80%

    Day after tomorrow, 23 August, Thursday

    Time Temperature Precipitation Wind Pressure Humidity
    00:00 +9°C° 0 mm 2 mps 753 mmHg 81%
    01:00 +8°C° 0 mm 2 mps 753 mmHg 82%
    02:00 +8°C° 0 mm 2 mps 754 mmHg 83%
    03:00 +8°C° 0 mm 2 mps 754 mmHg 83%
    04:00 +8°C° 0 mm 2 mps 754 mmHg 83%
    05:00 +7°C° 0 mm 2 mps 754 mmHg 83%
    06:00 +10°C° 0 mm 2 mps 754 mmHg 76%
    07:00 +13°C° 0 mm 2 mps 754 mmHg 68%
    08:00 +15°C° 0 mm 2 mps 755 mmHg 60%
    09:00 +16°C° 0 mm 3 mps 755 mmHg 55%
    10:00 +18°C° 0 mm 3 mps 754 mmHg 51%
    11:00 +19°C° 0 mm 3 mps 754 mmHg 46%
    12:00 +20°C° 0 mm 3 mps 754 mmHg 45%
    13:00 +20°C° 0 mm 3 mps 754 mmHg 44%
    14:00 +21°C° 0 mm 3 mps 754 mmHg 44%
    15:00 +20°C° 0 mm 3 mps 754 mmHg 47%
    16:00 +20°C° 0 mm 2 mps 754 mmHg 51%
    17:00 +20°C° 0 mm 2 mps 753 mmHg 55%
    18:00 +18°C° 0 mm 2 mps 753 mmHg 61%
    19:00 +16°C° 0 mm 2 mps 753 mmHg 68%
    20:00 +14°C° 0 mm 2 mps 753 mmHg 74%
    21:00 +13°C° 0 mm 2 mps 753 mmHg 76%
    22:00 +13°C° 0 mm 2 mps 754 mmHg 79%
    23:00 +12°C° 0 mm 2 mps 754 mmHg 81%

    24 August, Friday

    Time Temperature Precipitation Wind Pressure Humidity
    00:00 +12°C° 0 mm 2 mps 754 mmHg 82%
    01:00 +10°C° 0 mm 2 mps 754 mmHg 83%
    02:00 +10°C° 0 mm 2 mps 754 mmHg 85%
    03:00 +10°C° 0 mm 2 mps 754 mmHg 86%
    04:00 +9°C° 0 mm 2 mps 753 mmHg 87%
    05:00 +9°C° 0 mm 2 mps 753 mmHg 88%
    06:00 +12°C° 0 mm 2 mps 753 mmHg 80%
    07:00 +15°C° 0 mm 2 mps 753 mmHg 72%
    08:00 +17°C° 0 mm 2 mps 753 mmHg 64%
    09:00 +18°C° 0 mm 2 mps 753 mmHg 58%
    10:00 +20°C° 0 mm 3 mps 753 mmHg 52%
    11:00 +21°C° 0 mm 3 mps 753 mmHg 46%
    12:00 +22°C° 0 mm 3 mps 752 mmHg 45%
    13:00 +22°C° 0 mm 3 mps 752 mmHg 44%
    14:00 +24°C° 0 mm 3 mps 752 mmHg 43%
    15:00 +22°C° 0 mm 3 mps 752 mmHg 47%
    16:00 +23°C° 0 mm 2 mps 751 mmHg 52%
    17:00 +21°C° 0 mm 2 mps 751 mmHg 56%
    18:00 +19°C° 0 mm 2 mps 751 mmHg 63%
    19:00 +18°C° 0 mm 1 mps 751 mmHg 69%
    20:00 +15°C° 0 mm 1 mps 751 mmHg 75%
    21:00 +15°C° 0 mm 2 mps 751 mmHg 78%
    22:00 +14°C° 0 mm 2 mps 751 mmHg 80%
    23:00 +13°C° 0 mm 2 mps 751 mmHg 82%

    25 August, Saturday

    Time Temperature Precipitation Wind Pressure Humidity
    00:00 +13°C° 0 mm 2 mps 751 mmHg 83%
    01:00 +13°C° 0 mm 2 mps 751 mmHg 84%
    02:00 +12°C° 0 mm 2 mps 751 mmHg 86%
    03:00 +12°C° 0 mm 2 mps 751 mmHg 86%
    04:00 +12°C° 0 mm 2 mps 751 mmHg 87%
    05:00 +12°C° 0 mm 2 mps 751 mmHg 87%
    06:00 +14°C° 0 mm 2 mps 751 mmHg 79%
    07:00 +16°C° 0 mm 3 mps 751 mmHg 71%
    08:00 +18°C° 0 mm 3 mps 751 mmHg 63%
    09:00 +20°C° 0 mm 3 mps 751 mmHg 56%
    10:00 +22°C° 0 mm 4 mps 750 mmHg 50%
    11:00 +25°C° 0 mm 4 mps 750 mmHg 44%
    12:00 +25°C° 0 mm 4 mps 750 mmHg 43%
    13:00 +26°C° 0 mm 4 mps 750 mmHg 41%
    14:00 +26°C° 0 mm 4 mps 750 mmHg 40%
    15:00 +26°C° 0 mm 4 mps 749 mmHg 44%
    16:00 +25°C° 0 mm 3 mps 749 mmHg 49%
    17:00 +24°C° 0 mm 2 mps 749 mmHg 53%
    18:00 +21°C° 0 mm 2 mps 749 mmHg 58%
    19:00 +19°C° 0 mm 2 mps 749 mmHg 63%
    20:00 +17°C° 0 mm 3 mps 749 mmHg 69%
    21:00 +17°C° 0 mm 3 mps 749 mmHg 70%
    22:00 +16°C° 0 mm 3 mps 749 mmHg 72%
    23:00 +16°C° 0 mm 3 mps 749 mmHg 74%

    26 August, Sunday

    Time Temperature Precipitation Wind Pressure Humidity
    00:00 +16°C° 0 mm 3 mps 750 mmHg 76%
    01:00 +14°C° 0 mm 3 mps 750 mmHg 78%
    02:00 +15°C° 0 mm 2 mps 750 mmHg 80%
    03:00 +14°C° 0 mm 2 mps 750 mmHg 82%
    04:00 +14°C° 0 mm 2 mps 750 mmHg 83%
    05:00 +14°C° 0 mm 2 mps 750 mmHg 85%
    06:00 +16°C° 0 mm 2 mps 751 mmHg 77%
    07:00 +18°C° 0 mm 2 mps 751 mmHg 69%
    08:00 +20°C° 0 mm 2 mps 751 mmHg 61%
    09:00 +22°C° 0 mm 3 mps 751 mmHg 54%
    10:00 +25°C° 0 mm 3 mps 751 mmHg 48%
    11:00 +27°C° 0 mm 3 mps 751 mmHg 41%
    12:00 +27°C° 0 mm 3 mps 751 mmHg 40%
    13:00 +27°C° 0 mm 3 mps 751 mmHg 38%
    14:00 +28°C° 0 mm 3 mps 751 mmHg 37%
    15:00 +27°C° 0 mm 2 mps 751 mmHg 41%
    16:00 +26°C° 0 mm 2 mps 751 mmHg 46%
    17:00 +25°C° 0 mm 1 mps 751 mmHg 51%
    18:00 +23°C° 0 mm 2 mps 751 mmHg 55%
    19:00 +20°C° 0 mm 2 mps 751 mmHg 59%
    20:00 +18°C° 0 mm 2 mps 751 mmHg 63%
    21:00 +18°C° 0 mm 2 mps 751 mmHg 65%
    22:00 +17°C° 0 mm 2 mps 752 mmHg 66%
    23:00 +16°C° 0 mm 2 mps 752 mmHg 68%
    Show more